[Date Prev][Date Next][Thread Prev][Thread Next] - [Date Index][Thread Index][Author Index]

2 Line ISS Keps 2-26



ISS
1 25544U 98067A   03057.09901620  .00015134  00000-0  19805-3 0  7282
2 25544  51.6346 218.1889 0011948 246.8783 273.0260 15.58759984243678


----
Via the sarex mailing list at AMSAT.ORG courtesy of AMSAT-NA.
To unsubscribe, send "unsubscribe sarex" to Majordomo@amsat.org



AMSAT Top AMSAT Home